Main page
METAR-TAF:

METAR-TAF

Airports :

Rolla National Airport

Rolla, Missouri, United States

latitude: 38-07-55N, longitude: 091-45-55W, elevation: 1148 ft

Current weather observation

The report was made 37 minutes ago, at 05:53 UTC
Wind 5 mph from the Southwest
Temperature 39°F
Humidity 60%
Pressure 30.22 in. Hg
Visibility: 10 miles
Clear sky

METAR: KVIH 220553Z AUTO 22004KT 10SM CLR 04/M03 A3022 RMK AO2 SLP237 T00391028 10128 20022 401440022 58003 $

Time: 01:30 (06:30 UTC)


TAF: missing

Weather observations and forecasts of more than 4000 airports (METAR and TAF reports).

The available stations are represented by yellow and red dots on the map.

Hover mouse over dot to see the name of the station.

Then click to see weather observations and forecasts.

To change the map : click on the green buttons with a black cross to zoom in, on the green button with a dash to zoom out, or on the green arrows for adjacent maps.


METAR-TAF: